Showing default

PICO-01B009, 58287

Orbit data source: Space-Track

PICO-01B009, 58287 is a payload satellite owned by Apogeo Space (IT) in SSO that was launched on Sat, 11 Nov 2023 UTC via an FALCON 9 launch vehicle from the Air Force Western Test Range (AFWTR). Payloads include a variety of satellites, spacecraft, and rockets equipped with specific instruments for various scientific and technological missions. These include communications satellites like Starlink; space stations such as the ISS; scientific satellites like the Hubble; Earth observation satellites from companies like Planet Labs, Umbra, and HawkEye 360; GPS; miniature CubeSats for education and research; and military/defense satellites.

Loading next visibility...
PICO-01B009 details
Identifier
58287, 2023-174AH
Orbit
SSO
Last TLE update5 hours ago
Origin
Flag of ITApogeo Space (IT)
ManufacturerApogeo Space
MissionOperational Commercial Communications
Bus & MotorCUBESAT 0.3U, Unknown motor
Mass0.5 kg wet, 0.5 kg dry
Launch date (UTC)
2023-11-11 (1 year ago)
Launch vehicle
FALCON 9
Launch site
Air Force Western Test Range (AFWTR)
Object type
Payload
Rocket body
Debris
Shape & HBRBox, 0.3 m
Radar Cross Section0.080 m², Small (<0.1 m²)

Expand to show TLE details & history

TLE from 5 hours ago
0 PICO-01B009
1 58287U 23174AH  24356.47308788  .00021840  00000-0  77955-3 0  9993
2 58287  97.4338  69.5348 0006784 288.6555  71.3948 15.28861905 62224
Epoch: 2024-12-21T11:21Z
Definitive object data (Epoch: 2024-12-21T11:21:14.792Z)
Latitude-0.00005°
Longitude168.69943°
Altitude480.833 km
Speed7.626 km/s
True Right ascension04h 38m 08s
True Declination0° 00' 00"
Sunlit
Object was in full shadow at TLE epoch
Visualization TLE readout
Latitude-5.86498°
Longitude169.65816°
Altitude481.363 km
Speed7.625 km/s
Apparent Right ascension04h 01m 30s
Apparent Declination-22° 34' 28"
Sunlit
Object is in full shadow
Visualization observer readout
Local Sidereal Time15:04:50
Azimuth321.102° NNW
Elevation-68.909°
Doppler factor1
Orbital elements
Apogee altitude480.818 km
Perigee altitude471.519 km
Semi-major axis6,854.306 km
Eccentricity0.0006784
Inclination97.4338°
RAAN69.5348°
Arg. of periapsis288.6555°
True anomaly71.4685°
Mean anomaly71.3948°
Eccentric anomaly71.43165°
Mean motion3.82471 °/min
BSTAR0.00077955
Orbital period94.12 mins
Loading maneuver chart data...
Loading historical data...
Loading historical data...
Loading historical data...
Loading historical data...
Loading historical data...
Loading historical data...
Loading historical data...

PICO-01B009 Visibility forecast

Observer location: undefined°, undefined

Span
Click to sort rows by Start time (UTC) header in descending order
Start Az.
Max El. time (UTC)
Max El. Az.
Max El.
End time (UTC)
End Az.
6 mins2024-12-21 18:11:27.162Z2.888° NNE2024-12-21 18:14:27.162Z301.613° NW39.995°2024-12-21 18:17:27.162Z207.746° SW
5 mins2024-12-22 04:46:27.162Z138.193° SSE2024-12-22 04:48:27.162Z90.056° ESE33.186°2024-12-22 04:51:27.162Z6.538° NNE
|